NOAA 16 DEB, 42372

Orbit data source: Space-Track

NOAA 16 DEB, 42372 is space debris in SSO originally from a launch on Thu, 21 Sep 2000 UTC launched from the Air Force Western Test Range (AFWTR). Debris objects in space refer to the collection of defunct objects orbiting the Earth. Examples of debris include non-operational satellites, rocket bodies, and fragments generated from explosions, collisions, or faulty payload assembly.

Loading next visibility...
NOAA 16 DEB details
Identifier
42372, 2000-055RQ
Orbit
SSO
Last TLE update1 day ago
Origin
Flag of USNOAA (US)
ManufacturerUnknown
MissionSpacecraft
Bus & MotorUnknown
MassUnknown
Launch date (UTC)
2000-09-21 (24 years ago)
Launch vehicleUnknown
Launch site
Air Force Western Test Range (AFWTR)
Object type
Payload
Rocket body
Debris
Shape & HBRUnknown
Radar Cross SectionSmall (<0.1 m²)

Expand to show TLE details & history

TLE from 1 day ago
0 NOAA 16 DEB
1 42372U 00055RQ  24360.51440835  .00012005  00000-0  49229-2 0  9999
2 42372  98.8519 102.7471 0011717 113.7074 246.5337 14.27194766450323
Epoch: 2024-12-25T12:20Z
Definitive object data (Epoch: 2024-12-25T12:20:44.881Z)
Latitude0.00002°
Longitude-176.94697°
Altitude807.401 km
Speed7.448 km/s
True Right ascension06h 50m 59s
True Declination0° 00' 00"
Sunlit
Object was in full shadow at TLE epoch
Visualization TLE readout
Latitude43.24824°
Longitude12.52253°
Altitude799.828 km
Speed7.462 km/s
Apparent Right ascension22h 24m 05s
Apparent Declination6° 39' 01"
Sunlit
Object is in daylight
Visualization observer readout
Local Sidereal Time13:34:57
Azimuth54.84° ENE
Elevation-25.991°
Doppler factor1
Orbital elements
Apogee altitude806.687 km
Perigee altitude789.87 km
Semi-major axis7,176.416 km
Eccentricity0.0011717
Inclination98.8519°
RAAN102.7471°
Arg. of periapsis113.7074°
True anomaly246.41061°
Mean anomaly246.5337°
Eccentric anomaly246.47215°
Mean motion3.57011 °/min
BSTAR0.0049229
Orbital period100.84 mins
Loading maneuver chart data...
Loading historical data...
Loading historical data...
Loading historical data...
Loading historical data...
Loading historical data...
Loading historical data...
Loading historical data...

NOAA 16 DEB Visibility forecast

Observer location: undefined°, undefined

Span
Click to sort rows by Start time (UTC) header in descending order
Start Az.
Max El. time (UTC)
Max El. Az.
Max El.
End time (UTC)
End Az.
8 mins2024-12-26 19:13:09.379Z35.723° NE2024-12-26 19:17:09.379Z91.306° ESE28.521°2024-12-26 19:21:09.379Z155.456° SSE
7 mins2024-12-26 20:54:09.379Z339.259° N2024-12-26 20:57:09.379Z289.186° WNW25.978°2024-12-26 21:01:09.379Z236.033° WSW
8 mins2024-12-27 06:33:09.379Z136.825° SSE2024-12-27 06:36:09.379Z77.441° E37.491°2024-12-27 06:41:09.379Z357.66° N
5 mins2024-12-27 08:14:09.379Z237.835° WSW2024-12-27 08:16:09.379Z265.605° W18.039°2024-12-27 08:19:09.379Z304.912° NW
|